Location: Terra Rouge Observatory
(46.0000°N, 62.7500°W)
Time: 16:43:44
(UTC-03:00)

Daily predictions for brighter satellites

Satellite Brightness Start Highest point End
(mag) Time Altitude Azimuth Time Altitude Azimuth Time Altitude Azimuth
Cosmos 2322 Rocket 2.3 21:17:38 10° NNW 21:23:17 86° WSW 21:28:54 10° SSE
NOAA 11 4.3 21:19:39 10° SSE 21:25:08 82° WSW 21:30:38 10° NNW
Cosmos 1939 Rocket 4.4 21:25:32 10° SSW 21:29:21 37° W 21:33:14 10° NNW
SL-16 R/B 2.5 21:27:44 10° NNW 21:33:24 70° WSW 21:39:01 10° SSE
Cosmos 1242 Rocket 3.0 21:32:09 10° NNW 21:35:47 63° W 21:39:20 10° S
Thor Agena Rocket 4.5 21:32:10 10° N 21:37:20 55° WNW 21:42:24 10° SW
Cosmos 2150 Rocket 4.1 21:34:21 10° NNW 21:39:46 80° ENE 21:45:04 10° SSE
MetOp-B 4.2 21:43:00 10° SSE 21:48:19 68° ENE 21:53:38 10° N
Cosmos 1340 Rocket 3.0 21:44:28 10° S 21:48:24 52° E 21:52:23 10° NNE
Timation 2 Rocket 4.2 21:43:23 10° SW 21:49:21 74° WNW 21:55:30 10° NNE
Cosmos 540 Rocket 4.1 21:45:10 10° SSE 21:49:51 36° ESE 21:54:35 10° NE
Cosmos 2034 Rocket 4.5 21:45:23 10° SSE 21:51:03 41° E 21:56:45 10° NNE
Spot 2 Rocket 4.5 21:47:44 10° S 21:52:34 45° W 21:57:24 10° NNW
Cosmos 1464 Rocket 4.2 21:47:36 10° S 21:53:50 59° E 22:00:06 10° NNE
Meteor 1-13 Rocket 4.4 21:48:00 10° S 21:53:56 85° E 21:59:56 10° NNE
Cosmos 1937 Rocket 4.1 21:50:30 10° NNW 21:55:31 54° WSW 22:00:30 10° S
Cosmos 1763 Rocket 3.7 21:55:14 10° SSW 22:00:33 78° WNW 22:05:51 10° NNE
Cosmos 2298 Rocket 4.4 21:55:43 10° NNW 22:00:57 62° WSW 22:06:10 10° S
SPOT 5 3.4 21:58:41 14° SE 22:02:11 41° ENE 22:06:33 10° N
Cosmos 1455 Rocket 3.1 21:58:17 10° N 22:02:40 82° W 22:07:03 10° S
Terra 3.3 21:59:27 12° ESE 22:02:53 24° ENE 22:06:40 10° N
USA 245 3.6 22:01:03 15° SSE 22:04:03 61° ENE 22:08:39 10° N
Meteor 1-15 Rocket 4.4 21:59:31 10° N 22:05:14 62° ENE 22:10:04 14° SSE
Cosmos 841 Rocket 3.5 22:01:45 10° SSW 22:07:00 86° ESE 22:12:19 10° NNE
USA 234 3.2 22:04:22 10° NE 22:10:58 76° SE 22:17:32 10° SW
Cosmos 2360 Rocket 2.3 22:06:44 10° NNW 22:12:24 80° WSW 22:17:11 15° SSE
USA 32 4.3 22:07:53 10° N 22:13:07 72° W 22:18:19 10° S
Cosmos 372 Rocket 4.1 22:09:37 10° NNW 22:14:44 65° ENE 22:18:32 18° SE
Cosmos 2219 Rocket 3.1 22:10:33 10° NNW 22:15:44 37° NE 22:19:55 15° ESE
Helios 1A 3.1 22:14:49 18° SSE 22:17:48 61° ENE 22:21:56 10° N
Okean 2 3.9 22:16:07 18° SSE 22:18:53 42° E 22:22:51 10° NNE
Abrixas rocket 2.5 22:15:48 10° W 22:19:01 65° NNW 22:22:14 10° ENE
ISS -1.9 22:22:37 10° WNW 22:25:37 32° N 22:28:36 10° ENE
Tiangong 2 1.4 22:23:46 10° WSW 22:26:49 45° S 22:28:04 28° SE
Shenzhou-11 Module 3.7 22:27:04 10° WSW 22:29:13 18° SSW 22:29:32 18° SSW
Cosmos 292 Rocket 4.3 22:26:47 10° SSW 22:31:29 60° WNW 22:36:12 10° NNE
Cosmos 1356 Rocket 3.8 22:29:12 21° SSE 22:31:44 47° E 22:35:53 10° NNE
ERS-1 Rocket 3.2 22:27:42 14° S 22:32:02 66° WSW 22:37:03 10° NNW
Iridium 40 4.2 22:32:22 42° ESE 22:32:33 44° E 22:34:50 10° NNE
CZ-2C R/B 3.9 22:35:05 20° SE 22:38:27 41° ENE 22:43:44 10° N
SJ 16-02 1.6 22:36:12 10° NNW 22:40:36 64° WSW 22:43:26 21° S
CENTAUR R/B 2.8 22:34:36 10° SW 22:40:40 74° NW 22:47:46 10° NE
Helios 1B rocket 2.6 22:36:35 10° NNE 22:40:40 54° E 22:42:55 24° S
Cosmos 2333 Rocket 2.7 22:36:30 10° NNW 22:42:04 51° ENE 22:45:41 21° SE
SL-16 R/B 4.3 22:40:21 10° N 22:44:00 17° NE 22:47:39 10° E
CZ-4C R/B 3.0 22:37:50 10° NW 22:44:58 81° NE 22:50:37 21° SE
COSMOS 2428 2.7 22:39:24 10° NNW 22:45:08 81° ENE 22:48:38 24° SSE
Iridium 90 4.2 22:45:20 34° SW 22:45:55 44° W 22:48:00 10° N
Meteor 1-23 Rocket 4.5 22:40:52 10° SSW 22:46:24 68° WNW 22:51:58 10° N
Cosmos 2228 4.4 22:43:40 10° NNE 22:47:16 26° ENE 22:48:53 20° ESE
SPOT 1/Viking Rocket 3.6 22:45:41 20° S 22:49:16 76° WSW 22:54:27 10° NNW
Cosmos 1536 Rocket 4.3 22:45:21 10° SSW 22:49:40 52° WNW 22:54:03 10° N
Okean 1-7 Rocket 4.1 22:49:43 28° SE 22:51:39 44° E 22:55:59 10° NNE
H-2A R/B 3.3 22:48:25 10° SSW 22:52:56 35° W 22:57:34 10° NNW
IGS 5A 3.4 22:52:03 30° SSE 22:54:03 77° ENE 22:58:14 10° N
Cosmos 1125 Rocket 3.7 22:49:23 10° NNW 22:54:35 65° WSW 22:57:45 24° S
Cosmos 1726 Rocket 4.3 22:50:55 10° N 22:55:05 39° ENE 22:56:47 28° ESE
Meteor 1-29 3.0 22:53:01 10° NNE 22:56:29 60° ESE 22:57:32 39° SSE
Cosmos 1092 Rocket 4.0 22:50:51 10° N 22:57:14 80° E 23:01:15 24° SSE
Nadezhda 4 Rocket 4.2 22:52:31 10° NNW 22:58:49 72° W 23:03:30 19° S
Lacrosse 5 rocket 2.6 22:57:17 10° WNW 23:01:01 29° SW 23:02:25 24° SSW
Cosmos 2297 Rocket 3.5 23:02:38 21° ESE 23:03:30 22° E 23:07:42 10° NE
Cosmos 2227 Rocket 3.3 23:05:57 24° ESE 23:07:03 26° ESE 23:11:37 10° NE
ERBS 4.3 23:05:57 10° NNW 23:08:49 25° NNE 23:11:02 14° ENE
Cosmos 1953 4.3 23:08:28 10° NNE 23:11:02 16° ENE 23:12:03 15° E
Cosmos 2237 Rocket 2.8 23:06:03 10° NNW 23:11:36 49° ENE 23:14:39 25° ESE
Cosmos 2058 Rocket 3.8 23:07:43 10° N 23:12:02 42° ENE 23:13:30 32° ESE
BREEZE-M DEB 4.0 23:10:23 10° WNW 23:13:17 60° WSW 23:13:17 60° WSW
Cosmos 1174 4.2 23:11:05 10° NNW 23:13:56 37° NE 23:14:35 33° E
NOSS 0 Rocket 4.0 23:09:07 10° NNW 23:15:24 73° ENE 23:18:42 29° SE
Cosmos 1066 Rocket 4.2 23:16:42 20° SSW 23:20:26 76° WNW 23:25:57 10° N
CARTOSAT-1 4.0 23:19:05 31° SSW 23:20:57 56° W 23:25:13 10° NNW
Cosmos 2026 Rocket 3.9 23:19:27 10° N 23:25:39 83° E 23:28:42 32° SSE
BREEZE-M R/B 3.4 23:27:51 10° WNW 23:30:25 35° N 23:31:17 25° NE
Cosmos 1025 Rocket 4.1 23:27:27 17° SW 23:30:31 41° WNW 23:34:42 10° N
ALOS 2 4.4 23:29:45 17° E 23:31:20 21° ENE 23:34:36 10° NNE
Cosmos 2279 Rocket 4.1 23:29:29 33° SSE 23:32:17 61° E 23:38:24 10° NNE
Cosmos 1655 Rocket 4.1 23:28:03 10° N 23:34:25 66° ENE 23:37:18 34° SSE
SAR-Lupe-4 3.6 23:35:17 58° ESE 23:35:43 64° ENE 23:39:16 10° N
Meteor 1-21 4.2 23:34:55 36° SSE 23:37:06 64° E 23:42:41 10° NNE
Cosmos 1606 Rocket 3.8 23:33:15 10° NNW 23:37:39 62° W 23:39:09 38° SSW
Cosmos 2219 3.3 23:34:42 18° SSW 23:39:01 82° WNW 23:44:50 10° NNE
Cosmos 1544 4.2 23:36:45 10° NNW 23:40:11 36° W 23:41:11 30° SW
Terra 2.6 23:38:20 28° SSW 23:40:22 44° W 23:44:57 10° NNW
Meteor 1-22 Rocket 4.2 23:36:02 10° NNW 23:41:21 67° W 23:43:33 35° SSW
Cosmos 2142 Rocket 4.5 23:41:07 28° SSW 23:44:35 81° W 23:50:51 10° N
Cosmos 1766 3.6 23:41:39 10° NNW 23:45:35 59° W 23:46:26 46° SW
Iridium 4 Rocket 4.0 23:50:04 39° SSE 23:52:06 60° E 23:57:55 10° N
CZ-2C R/B 2.7 23:47:52 10° NNE 23:53:33 88° W 23:56:06 34° SSW
SAR-Lupe-1 3.9 23:53:26 79° SSE 23:53:38 88° E 23:57:15 10° NNW
USA 234 4.3 23:47:32 10° NE 23:53:46 48° NNW 23:59:58 10° W
Intercosmos 25 3.3 23:52:55 54° SSW 23:53:46 82° W 23:57:10 10° N
Abrixas rocket 2.7 23:52:27 10° WNW 23:55:39 57° N 23:55:58 54° NE
